CW8998 Weather Reports


time (UTC)temp
C
wind
direction
speed
KPH
gust
KPH
rain 1hr
cm
rain 24hr
cm
rain mn
cm
humidity
%
barometer
mb
20260502194544 20 281 6.4 16.1 0.00 0.00 0.00 29 1012.1
20260502194026 20 233 4.8 22.5 0.00 0.00 0.00 33 1012.2
20260502193526 18 235 9.7 22.5 0.00 0.00 0.00 32 1012.3
20260502193037 19 229 9.7 29.0 0.00 0.00 0.00 32 1012.3
20260502192525 19 232 9.7 29.0 0.00 0.00 0.00 32 1012.4
20260502192028 19 191 11.3 29.0 0.00 0.00 0.00 31 1012.6
20260502191548 19 235 4.8 19.3 0.00 0.00 0.00 32 1012.6
20260502191028 19 208 6.4 20.9 0.00 0.00 0.00 31 1012.8
20260502190530 18 173 8.0 29.0 0.00 0.00 0.00 33 1012.9
20260502190041 18 237 12.9 29.0 0.00 0.00 0.00 32 1013.0
20260502185529 18 269 6.4 20.9 0.00 0.00 0.00 33 1013.1
20260502185029 18 274 9.7 24.1 0.00 0.00 0.00 32 1013.2
20260502184540 17 307 12.9 24.1 0.00 0.00 0.00 32 1013.2
20260502184032 18 183 4.8 20.9 0.00 0.00 0.00 32 1013.3
20260502183527 18 148 8.0 22.5 0.00 0.00 0.00 35 1013.3
20260502183037 18 249 9.7 22.5 0.00 0.00 0.00 33 1013.6
20260502182528 17 245 6.4 32.2 0.00 0.00 0.00 33 1013.6
20260502182026 18 223 11.3 32.2 0.00 0.00 0.00 31 1013.7
20260502181548 17 183 9.7 29.0 0.00 0.00 0.00 33 1014.0
20260502181028 17 177 8.0 27.4 0.00 0.00 0.00 34 1013.9
20260502180531 17 188 11.3 27.4 0.00 0.00 0.00 33 1014.1
20260502164027 15 167 12.9 25.7 0.00 0.00 0.00 34 1015.4
20260502163528 15 178 3.2 27.4 0.00 0.00 0.00 36 1015.3
20260502163042 14 303 12.9 27.4 0.00 0.00 0.00 35 1015.5
20260502162529 14 229 6.4 29.0 0.00 0.00 0.00 37 1015.6
20260502162025 14 186 8.0 29.0 0.00 0.00 0.00 37 1015.8
20260502161536 14 263 9.7 25.7 0.00 0.00 0.00 37 1015.8
20260502161027 14 158 11.3 25.7 0.00 0.00 0.00 36 1015.8
20260502160530 13 243 4.8 20.9 0.00 0.00 0.00 37 1016.0
20260502152028 12 190 6.4 20.9 0.00 0.00 0.00 41 1016.5
20260502151547 12 270 6.4 19.3 0.00 0.00 0.00 41 1016.7
20260502151027 12 192 4.8 19.3 0.00 0.00 0.00 44 1016.7
20260502150527 11 224 9.7 19.3 0.00 0.00 0.00 43 1016.8
20260502130529 7 221 4.8 12.9 0.00 0.00 0.00 52 1017.7
20260502123527 5 201 0.0 9.7 0.00 0.00 0.00 59 1017.8
20260502123045 5 274 1.6 6.4 0.00 0.00 0.00 59 1017.9
20260502122527 5 248 0.0 4.8 0.00 0.00 0.00 60 1017.8
20260502122030 4 202 0.0 4.8 0.00 0.00 0.00 60 1017.9
20260502121541 4 217 0.0 8.0 0.00 0.00 0.00 60 1017.9
20260502121028 4 0 1.6 8.0 0.00 0.00 0.00 60 1017.8
20260502120528 4 261 0.0 6.4 0.00 0.00 0.00 61 1017.9
20260502115527 4 224 1.6 12.9 0.00 0.00 0.00 60 1017.8
20260502115029 4 276 0.0 12.9 0.00 0.00 0.00 60 1017.9
20260502114537 3 244 4.8 12.9 0.00 0.00 0.00 60 1017.9
20260502114028 3 275 3.2 11.3 0.00 0.00 0.00 61 1017.9
20260502113527 3 290 3.2 11.3 0.00 0.00 0.00 61 1017.9
20260502113045 3 255 3.2 6.4 0.00 0.00 0.00 61 1017.9
20260502112529 3 262 1.6 6.4 0.00 0.00 0.00 62 1017.9
20260502112026 3 0 1.6 4.8 0.00 0.00 0.00 62 1017.9
20260502111548 3 207 0.0 4.8 0.00 0.00 0.00 62 1017.9
20260502111026 3 249 0.0 4.8 0.00 0.00 0.00 60 1017.9
20260502110527 3 248 1.6 4.8 0.00 0.00 0.00 60 1017.9
20260502110042 3 0 0.0 4.8 0.00 0.00 0.00 60 1017.8
20260502105527 3 0 0.0 4.8 0.00 0.00 0.00 60 1017.8
20260502105027 3 270 1.6 4.8 0.00 0.00 0.00 61 1017.8
20260502104538 2 0 0.0 3.2 0.00 0.00 0.00 62 1017.9
20260502104027 2 201 0.0 3.2 0.00 0.00 0.00 63 1017.8
20260502103527 2 0 0.0 3.2 0.00 0.00 0.00 62 1017.9
20260502103043 2 0 0.0 3.2 0.00 0.00 0.00 63 1018.0
20260502102527 2 0 0.0 1.6 0.00 0.00 0.00 63 1017.9
20260502102030 3 0 0.0 3.2 0.00 0.00 0.00 62 1017.9
20260502101546 3 0 0.0 3.2 0.00 0.00 0.00 62 1018.0
20260502101026 3 0 0.0 3.2 0.00 0.00 0.00 61 1017.9
20260502100526 3 229 0.0 3.2 0.00 0.00 0.00 61 1017.9
20260502091029 2 176 0.0 4.8 0.00 0.00 0.00 68 1017.9
20260502090527 2 190 1.6 3.2 0.00 0.00 0.00 66 1017.8
20260502071028 5 274 0.0 4.8 0.00 0.00 0.00 56 1018.1
20260502070528 5 0 1.6 4.8 0.00 0.00 0.00 56 1018.2
20260502070043 5 0 0.0 3.2 0.00 0.00 0.00 56 1018.2
20260502065527 5 0 0.0 4.8 0.00 0.00 0.00 55 1018.2
20260502065027 5 0 0.0 4.8 0.00 0.00 0.00 55 1018.3
20260502064542 5 0 1.6 6.4 0.00 0.00 0.00 54 1018.3
20260502064027 5 0 1.6 9.7 0.00 0.00 0.00 53 1018.3
20260502063526 5 300 3.2 9.7 0.00 0.00 0.00 53 1018.4
20260502063055 5 277 1.6 9.7 0.00 0.00 0.00 54 1018.4
20260502062527 5 300 3.2 11.3 0.00 0.00 0.00 54 1018.4
20260502062026 5 270 3.2 11.3 0.00 0.00 0.00 54 1018.4
20260502061542 5 304 3.2 8.0 0.00 0.00 0.00 55 1018.4
20260502061027 5 277 1.6 8.0 0.00 0.00 0.00 55 1018.3
20260502060527 5 277 1.6 8.0 0.00 0.00 0.00 55 1018.3
20260502060042 5 263 1.6 4.8 0.00 0.00 0.00 55 1018.2
20260502055527 5 0 0.0 4.8 0.00 0.00 0.00 55 1018.2
20260502055027 5 0 1.6 4.8 0.00 0.00 0.00 55 1018.3
20260502054545 5 0 1.6 4.8 0.00 0.00 0.00 54 1018.3
20260502054026 5 0 0.0 4.8 0.00 0.00 0.00 54 1018.3
20260502053526 5 298 0.0 6.4 0.00 0.00 0.00 54 1018.3
20260502053052 5 318 1.6 6.4 0.00 0.00 0.00 54 1018.4
20260502052526 6 304 1.6 6.4 0.00 0.00 0.00 54 1018.4
20260502052026 6 286 1.6 6.4 0.00 0.00 0.00 53 1018.4
20260502051537 6 282 1.6 6.4 0.00 0.00 0.00 53 1018.4
20260502051027 6 313 3.2 6.4 0.00 0.00 0.00 53 1018.4
20260502050530 6 305 1.6 6.4 0.00 0.00 0.00 53 1018.3
20260502050047 6 291 1.6 6.4 0.00 0.00 0.00 52 1018.3
20260502045527 6 319 1.6 6.4 0.00 0.00 0.00 51 1018.3
20260502045031 6 284 1.6 6.4 0.00 0.00 0.00 51 1018.3
20260502044541 6 0 1.6 6.4 0.00 0.00 0.00 51 1018.3
20260502044026 6 296 3.2 6.4 0.00 0.00 0.00 51 1018.3
20260502043529 6 0 1.6 6.4 0.00 0.00 0.00 50 1018.4
20260502043042 7 0 1.6 6.4 0.00 0.00 0.00 50 1018.4
20260502042526 7 306 3.2 6.4 0.00 0.00 0.00 49 1018.5
20260502042027 7 294 1.6 6.4 0.00 0.00 0.00 49 1018.5
20260502041539 7 273 1.6 6.4 0.00 0.00 0.00 49 1018.4
20260502041027 7 318 1.6 6.4 0.00 0.00 0.00 48 1018.4
20260502040527 7 277 1.6 6.4 0.00 0.00 0.00 48 1018.4
20260502040046 7 319 3.2 8.0 0.00 0.00 0.00 48 1018.4
20260502035527 7 319 3.2 8.0 0.00 0.00 0.00 48 1018.4
20260502035027 7 323 1.6 8.0 0.00 0.00 0.00 48 1018.4
20260502034541 7 319 1.6 6.4 0.00 0.00 0.00 47 1018.4
20260502034027 7 294 1.6 6.4 0.00 0.00 0.00 47 1018.5
20260502033526 7 289 1.6 6.4 0.00 0.00 0.00 47 1018.5
20260502033043 7 0 0.0 4.8 0.00 0.00 0.00 47 1018.6
20260502032529 7 289 1.6 4.8 0.00 0.00 0.00 47 1018.4
20260502032026 7 0 0.0 4.8 0.00 0.00 0.00 47 1018.4
20260502031540 7 280 1.6 4.8 0.00 0.00 0.00 47 1018.4
20260502031026 7 248 1.6 4.8 0.00 0.00 0.00 47 1018.4
20260502030527 7 275 1.6 4.8 0.00 0.00 0.00 48 1018.3
20260502030042 7 237 0.0 3.2 0.00 0.00 0.00 52 1018.3
20260502025527 7 0 0.0 3.2 0.00 0.00 0.00 50 1018.3
20260502025027 7 194 0.0 3.2 0.00 0.00 0.00 52 1018.3
20260502024537 7 0 0.0 3.2 0.00 0.00 0.00 52 1018.3
20260502024027 7 202 0.0 3.2 0.00 0.00 0.00 49 1018.2
20260502023527 7 0 0.0 3.2 0.00 0.00 0.00 44 1018.2
20260502023043 8 0 0.0 1.6 0.00 0.00 0.00 45 1018.3
20260502022526 8 0 0.0 1.6 0.00 0.00 0.00 43 1018.2
20260502022026 8 0 0.0 3.2 0.00 0.00 0.00 41 1018.2
20260502021540 8 0 0.0 3.2 0.00 0.00 0.00 40 1018.2
20260502021033 8 0 0.0 3.2 0.00 0.00 0.00 40 1018.2
20260502020526 9 267 1.6 3.2 0.00 0.00 0.00 40 1018.1
20260502020042 9 240 0.0 3.2 0.00 0.00 0.00 40 1018.1
20260502015526 9 0 0.0 3.2 0.00 0.00 0.00 41 1018.1
20260502015026 9 253 0.0 3.2 0.00 0.00 0.00 39 1018.1
20260502014538 9 0 0.0 3.2 0.00 0.00 0.00 37 1018.0
20260502014029 10 0 0.0 3.2 0.00 0.00 0.00 37 1017.9
20260502013526 10 0 0.0 3.2 0.00 0.00 0.00 35 1017.9
20260502013036 10 252 0.0 3.2 0.00 0.00 0.00 34 1017.9
20260502012526 10 298 0.0 3.2 0.00 0.00 0.00 33 1017.9
20260502012027 11 0 1.6 3.2 0.00 0.00 0.00 33 1017.8
20260502011540 11 307 0.0 4.8 0.00 0.00 0.00 33 1017.7
20260502011026 11 0 1.6 6.4 0.00 0.00 0.00 32 1017.8
20260502010526 11 283 1.6 6.4 0.00 0.00 0.00 32 1017.8
20260502010040 11 323 3.2 6.4 0.00 0.00 0.00 32 1017.7
20260502005527 11 303 3.2 4.8 0.00 0.00 0.00 31 1017.7
20260502005027 11 344 1.6 6.4 0.00 0.00 0.00 31 1017.7
20260502004543 11 311 1.6 11.3 0.00 0.00 0.00 31 1017.7
20260502004027 11 288 1.6 11.3 0.00 0.00 0.00 30 1017.5
20260502003526 11 262 3.2 11.3 0.00 0.00 0.00 31 1017.5
20260502003043 11 306 3.2 12.9 0.00 0.00 0.00 31 1017.5
20260502002526 11 299 4.8 12.9 0.00 0.00 0.00 31 1017.7
20260502002030 12 296 1.6 12.9 0.00 0.00 0.00 31 1017.7
20260502001542 12 0 3.2 12.9 0.00 0.00 0.00 30 1017.6
20260502001030 12 269 1.6 16.1 0.00 0.00 0.00 29 1017.5
20260502000526 12 30 6.4 16.1 0.00 0.00 0.00 30 1017.5
20260502000046 12 317 4.8 14.5 0.00 0.00 0.00 31 1017.5
20260501235526 12 253 4.8 12.9 0.00 0.00 0.00 29 1017.5
20260501235026 12 290 4.8 11.3 0.00 0.00 0.00 29 1017.7
20260501234540 12 303 4.8 12.9 0.00 0.00 0.00 28 1017.7
20260501234027 12 304 3.2 12.9 0.00 0.00 0.00 29 1017.7
20260501233527 12 341 4.8 12.9 0.00 0.00 0.00 29 1017.7
20260501233037 12 281 3.2 14.5 0.00 0.00 0.00 29 1017.7
20260501232529 12 299 6.4 14.5 0.00 0.00 0.00 28 1017.7
20260501232027 12 336 3.2 11.3 0.00 0.00 0.00 30 1017.8
20260501231554 12 55 3.2 11.3 0.00 0.00 0.00 30 1017.8
20260501231026 11 0 1.6 8.0 0.00 0.00 0.00 30 1017.7
20260501230528 12 18 3.2 8.0 0.00 0.00 0.00 29 1017.8
20260501230046 11 296 1.6 11.3 0.00 0.00 0.00 30 1017.7
20260501225530 11 41 4.8 12.9 0.00 0.00 0.00 30 1017.8
20260501225031 12 360 1.6 12.9 0.00 0.00 0.00 30 1017.8
20260501224547 12 319 4.8 11.3 0.00 0.00 0.00 30 1017.8
20260501224029 12 360 4.8 12.9 0.00 0.00 0.00 30 1017.9
20260501223529 11 348 3.2 16.1 0.00 0.00 0.00 30 1017.9
20260501223045 12 342 6.4 16.1 0.00 0.00 0.00 29 1017.9
20260501222529 12 321 4.8 22.5 0.00 0.00 0.00 28 1017.9
20260501222029 12 281 6.4 22.5 0.00 0.00 0.00 29 1017.9
20260501221600 13 21 9.7 22.5 0.00 0.00 0.00 27 1017.8
20260501221025 13 42 4.8 16.1 0.00 0.00 0.00 27 1017.9
20260501220527 12 28 4.8 16.1 0.00 0.00 0.00 28 1017.9
20260501220045 13 330 6.4 27.4 0.00 0.00 0.00 27 1017.9
20260501215529 12 246 9.7 27.4 0.00 0.00 0.00 29 1017.8
20260501215030 12 63 3.2 17.7 0.00 0.00 0.00 29 1017.9
20260501214541 12 263 3.2 17.7 0.00 0.00 0.00 29 1017.9
20260501214033 12 305 4.8 14.5 0.00 0.00 0.00 29 1018.0
20260501213529 12 20 6.4 14.5 0.00 0.00 0.00 30 1018.1
20260501213041 12 95 4.8 20.9 0.00 0.00 0.00 29 1018.0
20260501212528 11 92 1.6 20.9 0.00 0.00 0.00 30 1018.1
20260501212028 11 48 9.7 20.9 0.00 0.00 0.00 30 1018.1
20260501211549 12 86 4.8 11.3 0.00 0.00 0.00 29 1018.1
20260501211027 12 77 3.2 17.7 0.00 0.00 0.00 31 1018.1
20260501210528 11 78 3.2 17.7 0.00 0.00 0.00 31 1018.1
20260501210041 11 313 3.2 12.9 0.00 0.00 0.00 32 1018.2
20260501205529 11 352 3.2 17.7 0.00 0.00 0.00 31 1018.3
20260501205029 11 15 4.8 17.7 0.00 0.00 0.00 31 1018.3
20260501204542 11 300 8.0 17.7 0.00 0.00 0.00 31 1018.4
20260501204029 11 326 3.2 17.7 0.00 0.00 0.00 30 1018.4
20260501203528 11 322 6.4 19.3 0.00 0.00 0.00 31 1018.4
20260501203040 11 304 3.2 19.3 0.00 0.00 0.00 32 1018.6
20260501202529 10 311 4.8 16.1 0.00 0.00 0.00 33 1018.5
20260501202028 11 121 6.4 16.1 0.00 0.00 0.00 30 1018.5
20260501201541 11 46 3.2 19.3 0.00 0.00 0.00 34 1018.5
20260501201030 11 340 8.0 19.3 0.00 0.00 0.00 34 1018.7
20260501200528 11 298 8.0 17.7 0.00 0.00 0.00 35 1018.6
20260501200044 11 296 6.4 19.3 0.00 0.00 0.00 35 1018.6
20260501195528 11 319 6.4 19.3 0.00 0.00 0.00 35 1018.6
20260501195028 11 22 4.8 14.5 0.00 0.00 0.00 34 1018.6